Probability
24 20 15 11 8 7 8 10 9 7 7 7 6 4 2 1 0 0 0 2 3 4 5 5 4 3 4 7 11 13 15 14 10 6 4 3 3 3 1 0 0 0 0
36 31 26 22 19 19 21 20 18 15 14 12 9 6 4 4 3 2 3 5 5 5 5 5 7 8 9 13 16 18 18 16 13 10 6 4 3 3 2 1 0 0 0
48 49 48 44 41 41 41 38 35 35 32 26 20 15 11 9 9 8 10 12 9 6 5 7 10 13 15 19 22 23 23 20 17 15 11 6 3 3 2 1 0 0 0
57 64 68 65 63 64 63 59 58 58 54 46 35 26 19 17 17 17 19 20 14 7 5 6 9 13 16 21 22 23 26 24 19 16 14 8 4 2 1 0 0 0 0
66 73 77 76 74 77 78 76 74 72 66 57 44 30 24 25 26 23 23 23 18 10 4 3 5 9 14 17 19 22 25 25 21 17 14 10 7 4 1 0 0 0 0
66 70 75 76 78 81 82 80 78 73 66 57 42 28 23 25 27 24 21 21 18 11 5 4 4 7 11 14 16 22 26 25 22 18 13 10 10 7 3 0 0 0 0
54 56 62 70 76 80 79 77 75 71 64 53 41 29 20 16 17 18 16 14 12 9 6 5 7 9 11 13 15 21 27 28 25 19 13 10 10 9 5 1 0 0 0
39 43 49 58 66 70 71 69 69 67 60 50 42 33 21 11 7 8 9 6 4 5 5 4 6 9 12 13 13 17 23 26 25 20 14 11 10 8 5 2 1 0 0
27 31 36 42 50 55 58 59 59 60 56 47 40 34 26 15 6 3 3 2 1 2 4 3 3 6 10 11 10 10 11 14 18 17 14 11 8 6 4 3 2 1 0
14 17 21 25 32 37 41 43 47 49 49 44 37 31 27 19 9 3 1 0 0 2 2 2 2 4 7 8 7 4 3 3 7 11 11 9 6 4 3 2 2 2 1
4 5 8 11 16 20 24 29 33 35 38 38 35 30 26 21 13 6 2 1 0 1 1 0 1 3 5 5 4 2 0 0 2 4 6 6 5 3 2 1 1 2 2
0 1 1 3 4 7 12 18 22 25 27 29 30 29 25 21 17 10 5 3 1 0 0 0 1 2 2 2 2 1 0 0 0 1 2 3 4 3 1 1 1 1 1
0 0 0 0 0 1 4 9 15 18 19 18 20 22 22 19 17 11 8 6 3 1 0 0 1 1 1 1 0 0 0 0 0 0 0 1 1 1 1 0 0 1 1
0 0 0 0 0 0 1 3 8 13 13 10 10 14 15 14 13 10 8 7 4 1 0 0 0 0 0 0 0 0 0 0 0 0 0 0 0 0 0 0 0 0 1
0 0 0 0 0 0 0 0 3 8 10 8 7 9 9 8 9 8 6 5 4 2 1 0 0 0 0 0 0 0 0 0 0 0 0 0 0 0 0 0 0 0 0
0 0 0 0 0 0 0 0 1 4 8 8 7 5 4 4 5 5 4 2 2 2 1 0 0 0 0 0 0 0 0 0 0 0 0 0 0 0 0 0 0 0 0
0 0 0 0 0 0 0 0 0 1 4 5 5 3 2 2 2 3 2 1 1 1 0 0 0 0 0 0 0 0 0 0 0 0 0 0 0 0 0 0 0 0 0
0 0 0 0 0 0 0 0 0 0 1 2 2 2 1 1 1 1 1 1 0 0 0 0 0 0 0 0 0 0 0 0 0 0 0 0 0 0 0 0 0 0 0
0 0 0 0 0 0 0 0 0 0 0 0 1 2 2 1 0 0 0 0 0 0 0 0 0 0 0 0 0 0 0 0 0 0 0 0 0 0 0 0 0 0 0
0 0 0 0 0 0 0 0 0 0 0 0 1 2 2 1 0 0 0 0 0 0 0 0 0 0 0 0 0 0 0 0 0 0 0 0 0 0 0 0 0 0 0
0 0 0 0 0 0 0 0 0 0 0 0 0 1 1 1 0 0 0 0 0 0 0 0 0 0 0 0 0 0 0 0 0 0 0 0 0 0 0 0 0 0 0
0 0 0 0 0 0 0 0 0 0 0 0 0 0 0 0 0 0 0 0 0 0 0 0 0 0 0 0 0 0 0 0 0 0 0 0 0 0 0 0 0 0 0
0 0 0 0 0 0 0 0 0 0 0 0 0 0 0 0 0 0 0 0 0 0 0 0 0 0 0 0 0 0 0 0 0 0 0 0 0 0 0 0 0 0 0
0 0 0 0 0 0 0 0 0 0 0 0 0 0 0 0 0 0 0 0 0 0 0 0 0 0 0 0 0 0 0 0 0 0 0 0 0 0 0 0 0 0 0
0 0 0 0 0 0 0 0 0 0 0 0 0 0 0 0 0 0 0 0 0 0 0 0 0 0 0 0 0 0 0 0 0 0 0 0 0 0 0 0 0 0 0
0 0 0 0 0 0 0 0 0 0 0 0 0 0 0 0 0 0 0 0 0 0 0 0 0 0 0 0 0 0 0 0 0 0 0 0 0 0 0 0 0 0 0
Wind_Speed
7 6 6 5 6 6 6 6 7 8 9 9 9 9 10 10 9 8 6 13 14 14 15 15 15 14 13 13 15 15 16 16 16 16 17 18 18 18 18 17 17 17 17
7 7 7 6 7 7 7 7 8 8 7 7 8 9 9 9 9 9 8 9 13 13 13 15 15 14 14 14 14 14 15 16 15 16 17 17 18 17 18 18 17 17 17
9 8 7 7 7 7 7 6 8 7 6 7 8 9 8 9 9 9 8 7 7 10 13 14 13 13 13 14 14 14 14 14 15 15 16 17 17 17 17 17 18 17 17
10 8 8 8 7 6 5 6 6 6 6 6 7 7 7 7 9 9 8 7 6 6 9 13 14 13 13 14 15 15 14 14 14 15 16 16 17 17 17 17 17 17 17
9 8 8 8 7 6 6 7 6 5 6 7 7 7 7 7 8 9 9 9 8 8 7 10 14 14 14 15 15 15 15 15 14 15 15 16 16 16 16 16 16 17 17
7 7 7 8 7 6 6 6 8 6 5 6 7 7 6 7 7 8 9 8 8 9 8 8 7 8 12 14 14 14 14 14 14 14 14 14 16 16 16 16 16 16 17
5 5 5 6 6 6 8 8 7 8 7 4 4 5 6 7 8 7 7 7 8 8 8 8 6 6 5 9 10 11 11 12 12 12 11 12 13 15 16 17 16 16 16
4 4 4 5 5 5 7 7 7 5 4 5 5 3 4 4 4 6 6 7 8 6 7 8 6 6 5 3 4 7 7 7 8 8 8 9 9 12 14 16 16 16 16
4 4 4 4 4 4 5 7 7 7 6 5 6 5 4 5 2 2 4 5 5 4 5 4 6 5 5 4 3 4 4 4 5 6 5 5 6 7 10 13 15 16 16
4 4 4 4 4 4 5 6 6 6 7 7 5 7 6 4 4 3 2 3 3 4 4 4 4 4 4 3 3 4 5 4 3 3 3 3 3 4 6 8 11 14 15
4 4 4 4 5 4 6 7 6 7 6 7 6 5 6 6 6 5 4 2 2 2 2 2 2 2 2 2 2 4 6 6 5 4 3 2 2 2 2 4 6 9 11
4 4 5 5 6 5 6 7 7 8 7 8 7 6 5 5 6 6 7 4 3 1 1 1 1 2 1 2 3 5 6 6 6 5 4 4 4 4 4 3 1 2 4
3 5 5 6 6 6 7 7 7 8 8 9 9 7 7 7 5 5 6 4 3 2 1 0 0 1 2 2 3 6 6 6 5 4 4 4 4 4 4 4 4 4 3
4 5 6 7 7 8 8 7 7 8 7 9 10 9 7 7 6 6 6 5 4 3 2 1 1 1 2 3 4 6 5 6 6 5 4 4 4 4 4 5 5 5 5
4 5 6 7 7 8 8 8 6 8 7 8 8 9 7 6 6 6 5 6 6 5 3 2 1 2 2 4 4 4 5 6 7 6 5 5 4 4 4 4 4 4 4
4 6 6 7 7 8 8 7 7 7 7 6 5 7 6 5 5 5 5 5 4 5 4 2 2 2 3 5 6 5 5 8 7 7 6 6 5 5 4 4 3 3 3
4 5 6 7 7 7 7 6 6 6 5 4 3 3 4 4 4 4 4 4 4 5 6 4 3 3 4 5 4 4 5 5 5 8 7 6 6 5 5 4 3 2 2
4 4 5 6 6 6 7 6 6 5 3 2 1 0 1 2 3 3 4 5 5 5 8 9 4 3 4 3 4 5 5 5 5 8 8 8 7 6 5 4 4 3 3
3 3 4 5 6 6 6 5 5 4 4 3 2 3 2 3 4 4 5 6 6 7 7 9 5 3 3 3 4 5 5 4 5 6 7 7 7 7 6 5 4 4 4
3 3 3 4 4 4 4 4 4 4 5 5 4 4 4 4 6 6 7 8 9 10 9 9 7 4 3 3 4 4 4 4 4 5 5 5 6 6 6 6 6 5 5
4 3 2 3 3 3 3 3 3 3 4 5 5 5 6 8 8 7 7 9 10 9 8 8 6 5 3 4 4 2 3 3 4 4 3 3 3 4 4 5 5 6 5
4 3 2 1 2 2 3 4 2 3 4 4 5 5 6 8 12 15 15 12 11 10 9 6 5 6 4 3 3 3 2 2 3 4 3 3 3 3 3 3 5 6 6
5 4 3 2 1 0 1 3 4 4 4 4 5 4 5 7 8 11 14 15 13 12 9 7 8 5 4 3 3 3 3 3 2 2 2 3 3 3 3 3 6 7 7
6 5 5 4 3 2 2 2 5 5 6 6 5 5 6 6 6 9 11 11 9 8 6 5 6 5 4 3 3 3 3 3 2 2 3 2 3 3 3 3 5 7 8
8 7 5 6 5 3 4 5 6 5 5 6 5 5 6 7 8 11 11 11 9 7 9 10 9 8 7 6 4 4 3 3 3 3 3 2 2 3 3 3 4 7 9
9 9 7 7 7 5 6 8 8 5 5 4 4 5 7 8 9 10 9 10 9 6 7 8 8 8 8 8 7 4 3 3 2 2 3 2 2 3 3 2 3 5 7
Wind_Direction
240 241 243 241 242 240 241 245 246 249 251 252 250 251 254 253 252 249 252 257 259 260 260 261 261 259 252 244 239 231 225 225 224 221 220 222 223 222 219 217 215 213 212
236 237 241 241 242 239 238 240 244 246 248 249 251 250 251 252 252 250 248 255 257 259 262 265 263 259 251 244 241 234 229 226 224 221 220 221 222 222 221 219 217 215 213
232 234 237 239 241 239 238 242 246 245 247 247 250 250 249 247 248 248 247 246 252 257 259 261 258 254 247 242 240 237 233 226 223 222 221 220 221 221 221 219 218 216 213
234 234 236 240 238 233 233 238 240 241 243 245 249 250 246 244 247 246 245 243 240 246 253 256 256 251 245 240 239 237 235 231 226 223 221 220 220 220 220 219 218 216 212
241 235 238 241 235 232 231 240 236 224 236 244 249 252 247 245 246 248 246 244 240 239 242 250 253 253 247 243 239 235 233 231 229 227 224 222 220 219 217 218 217 215 212
248 239 240 242 237 237 236 233 239 228 228 235 250 259 251 246 243 242 246 247 243 243 243 247 249 254 250 245 241 236 234 232 231 229 226 224 222 219 216 215 215 214 212
262 253 253 249 238 236 240 236 233 234 232 212 233 262 261 247 246 245 243 246 248 245 242 244 244 243 246 246 241 235 232 231 228 226 226 227 226 222 217 214 212 212 211
279 272 265 263 255 252 251 245 235 233 230 197 207 233 276 287 254 243 236 238 243 240 243 243 238 237 234 232 222 216 221 229 224 223 223 224 226 224 219 215 211 209 209
305 295 286 278 271 260 258 252 236 232 240 223 206 205 216 238 266 266 242 236 236 237 244 245 237 232 226 219 211 198 193 202 218 219 216 218 219 221 219 216 212 209 209
312 314 305 295 286 273 268 265 251 237 237 239 225 219 221 204 209 256 258 242 235 236 242 246 241 223 208 197 178 165 155 149 158 167 180 193 200 210 214 214 214 211 211
315 317 315 308 296 284 276 271 268 253 241 240 231 218 226 228 220 225 247 240 236 241 241 240 228 207 193 170 160 154 138 131 126 115 109 124 133 133 172 206 216 214 213
310 314 316 309 300 291 284 277 269 260 251 247 240 224 210 210 209 213 225 225 219 223 234 241 210 191 173 162 158 140 127 118 112 106 104 105 102 97 90 92 124 186 212
305 309 314 307 300 292 287 281 273 264 254 249 242 234 224 221 206 204 213 213 205 195 183 77 284 152 142 138 128 120 111 107 107 109 109 112 105 99 91 80 70 66 65
289 296 304 305 302 297 293 286 278 270 259 250 248 240 234 225 213 207 200 188 186 182 175 154 63 74 104 108 107 108 103 100 104 107 107 103 102 100 94 85 76 66 56
289 299 305 306 306 304 300 293 282 276 267 255 248 239 235 227 213 209 201 189 178 176 174 164 116 56 87 93 99 99 96 95 96 98 95 95 96 95 94 89 78 65 53
290 304 310 310 311 312 310 301 292 284 274 263 249 239 233 221 207 203 199 193 178 159 146 136 114 89 81 94 81 84 87 87 84 89 88 90 89 90 90 86 76 60 43
289 302 308 312 315 319 320 315 308 302 289 280 265 234 225 204 191 195 187 179 168 142 128 115 85 75 76 85 79 77 81 81 78 76 78 82 84 83 82 81 72 48 26
284 298 309 315 321 326 330 333 331 329 322 315 308 166 174 152 150 162 162 155 146 136 133 128 106 76 71 79 84 79 71 77 77 71 73 72 73 74 73 67 57 37 15
279 301 313 321 326 331 340 348 354 3 16 19 31 62 71 102 106 107 117 121 122 118 115 120 112 81 70 61 72 69 65 54 63 65 65 63 61 62 58 55 48 36 19
255 285 304 318 328 336 349 5 20 27 38 36 38 49 56 84 104 107 107 110 112 111 109 111 106 94 79 62 78 76 67 48 44 38 39 46 47 49 46 45 41 35 22
235 254 288 320 332 338 359 13 36 57 59 54 46 49 59 73 88 101 111 114 115 112 110 110 108 102 88 79 76 70 82 69 54 29 22 28 25 30 32 31 32 25 15
222 226 241 301 343 3 20 32 70 78 78 76 64 55 66 70 81 85 91 96 109 118 119 115 114 111 103 92 88 84 90 79 61 15 14 14 16 17 18 25 16 12 5
205 208 202 193 199 323 49 63 89 103 92 84 81 74 80 76 82 92 87 83 81 88 103 119 120 122 121 130 120 99 89 86 78 1 1 14 360 359 358 7 7 6 360
200 202 196 185 180 204 165 106 97 97 89 76 73 87 98 90 93 102 98 89 82 76 86 99 114 116 117 127 116 107 104 97 78 41 16 21 350 339 338 348 359 358 352
200 197 191 183 180 194 180 150 125 107 95 80 72 79 97 99 107 110 106 101 92 82 81 87 88 91 97 101 109 104 92 88 70 37 19 16 344 326 321 328 348 355 351
204 195 190 188 182 184 182 162 144 127 113 103 82 76 86 105 111 113 116 118 112 106 104 93 76 68 73 72 68 78 103 100 93 56 15 6 359 350 342 330 332 347 352